Location: Frizzleburg
(41.0764°N, 80.4548°W)
Time: 16:39:25
(UTC+00:00)

Abrixas rocket - Pass Details

Date: 17 November 2019
Orbit: 357 x 366 km, 48.4° (Epoch: 12 December)

Event Time Altitude Azimuth Distance (km) Brightness Sun altitude
Exits shadow 10:34:14 43° 197° (SSW) 513 2.6 -18.3°
Maximum altitude 10:34:53 56° 147° (SSE) 430 2.4 -18.2°
Drops below altitude 10° 10:37:50 10° 67° (ENE) 1,340 5.6 -17.7°
Sets 10:39:53 0° 63° (ENE) 2,191 6.8 -17.3°
